Wind_Speed
17 27 14 6 8 9 11 17 15 15 16 16 18 21 24 26 27 32 31 36 25 24 21 21 23 24 24 22 21 20 19 18 18 15 14 10 7 6 8 10 9 9 11
8 1 2 13 14 18 16 19 22 19 17 16 16 20 21 21 16 17 14 26 28 23 18 20 25 25 25 25 23 22 21 17 19 19 16 13 10 8 8 9 9 8 11
15 13 15 17 22 25 27 26 23 21 20 20 21 22 19 20 19 10 8 9 17 21 19 19 22 24 27 28 26 25 24 22 19 19 20 17 14 12 11 8 9 7 8
17 16 15 20 23 27 29 27 22 20 19 21 22 23 19 18 16 12 4 4 8 13 18 21 21 24 28 30 30 28 26 24 23 25 22 19 17 16 14 10 9 7 6
17 21 24 24 22 28 33 31 27 22 20 22 22 24 24 22 16 14 12 7 5 11 11 14 14 18 24 31 31 30 23 24 26 28 23 20 19 19 15 12 10 8 7
20 23 27 29 30 31 31 30 30 25 25 22 22 24 24 22 19 18 15 15 13 15 16 17 16 15 18 24 28 32 26 23 25 28 23 22 21 20 17 16 14 14 12
26 25 25 25 27 29 33 32 30 29 29 24 23 23 24 22 21 19 20 19 20 19 19 23 23 22 24 23 25 28 27 28 24 31 25 22 22 22 20 20 18 19 18
31 31 29 28 28 30 30 29 30 28 26 23 25 24 24 25 25 23 21 22 22 22 23 26 23 21 26 22 26 28 27 24 28 29 25 23 24 25 25 24 23 24 23
33 33 31 31 32 31 30 30 30 28 28 26 25 24 25 26 26 26 25 24 23 24 25 28 27 23 25 25 24 27 31 29 31 27 28 27 28 28 29 28 28 26 25
35 34 35 34 35 34 33 32 32 32 31 30 28 28 26 27 27 28 28 27 25 26 24 26 28 28 26 27 30 26 26 29 30 29 28 32 31 32 33 32 33 32 29
43 39 36 35 35 35 35 35 35 35 35 34 33 32 30 30 29 30 31 30 28 27 28 29 29 29 29 27 27 23 31 28 33 33 33 31 34 36 37 39 38 35 32
45 42 40 40 39 36 34 35 36 37 37 37 38 36 35 34 33 34 35 35 34 32 28 29 34 31 31 29 27 33 31 34 37 38 34 37 39 43 44 42 41 43 39
48 47 45 42 42 40 39 39 39 39 39 39 38 38 37 38 38 38 38 40 40 39 35 34 35 37 35 34 34 32 35 34 37 37 37 30 24 22 33 36 35 42 36
49 47 45 44 44 44 44 44 44 44 43 43 42 40 39 38 39 40 41 43 42 41 40 39 39 39 41 41 38 39 39 37 38 37 37 36 33 31 32 34 34 34 31
49 46 44 44 45 45 46 47 48 49 50 48 44 42 41 40 39 40 40 41 42 43 43 42 42 44 43 45 45 43 43 45 42 41 40 38 37 36 37 38 38 37 37
51 48 46 46 46 47 47 48 48 47 47 49 49 48 47 46 44 43 43 44 46 48 49 48 48 47 47 47 48 49 49 49 47 45 44 43 43 43 43 44 41 42 39
54 51 50 49 49 50 50 49 47 47 48 49 51 52 52 50 50 50 50 51 51 51 52 53 54 54 54 54 54 55 55 53 52 52 47 45 45 43 43 43 43 42 42
51 51 51 51 52 51 51 52 53 53 52 52 54 55 55 55 55 54 56 55 54 54 54 53 53 54 56 56 57 58 59 58 55 54 53 49 47 45 43 43 43 42 40
50 51 52 53 53 53 54 55 56 57 58 59 59 59 60 62 62 61 59 58 58 54 52 49 47 46 47 49 50 54 57 59 58 57 56 53 50 49 46 44 42 40 38
50 52 52 53 53 55 57 59 61 63 64 66 66 66 67 68 66 64 62 59 54 50 49 48 46 44 43 43 44 44 47 49 49 55 57 56 53 50 47 46 45 42 41
49 51 52 52 55 58 60 63 66 68 66 64 62 63 67 68 63 60 57 55 51 49 48 47 45 46 48 49 50 49 48 48 46 45 52 56 55 51 50 48 47 45 44
49 50 52 54 57 59 61 60 59 61 64 64 61 58 59 57 58 59 59 56 52 51 48 47 44 45 46 48 50 52 54 54 52 48 47 52 54 52 49 48 48 46 44
50 52 53 56 57 56 52 55 52 53 56 57 54 49 46 48 49 46 47 49 50 50 47 45 44 43 43 43 44 44 46 48 51 51 45 46 50 51 49 48 47 44 41
51 52 54 53 50 48 44 47 50 51 51 49 46 43 42 39 40 44 41 42 47 44 42 42 39 36 35 36 37 37 40 43 46 45 42 44 46 46 49 47 42 42 39
51 52 50 45 44 38 40 38 39 46 43 34 30 30 32 32 30 31 38 40 41 40 40 40 36 33 33 32 31 31 29 36 40 41 40 41 41 41 42 43 41 40 42
44 40 38 37 31 33 32 29 38 41 33 25 24 24 19 20 22 22 26 36 41 40 39 39 35 32 31 31 29 28 30 32 34 36 35 33 33 35 37 36 37 41 43
Wind_Direction
287 223 223 328 325 317 327 331 331 330 327 315 315 319 324 323 313 305 309 261 231 253 254 256 255 259 258 263 262 263 266 272 274 270 256 249 258 290 323 318 310 307 305
1 182 259 321 324 335 330 330 337 335 335 323 318 319 334 334 330 292 338 273 242 232 248 254 259 257 259 259 261 265 264 259 272 264 247 242 245 269 295 316 305 295 302
340 326 298 292 325 326 325 324 331 330 328 325 319 315 324 334 350 338 281 293 272 228 232 244 256 263 261 262 259 257 259 255 253 250 250 238 237 252 266 286 300 312 309
304 300 278 293 311 314 310 316 320 322 322 317 312 317 320 326 330 5 356 217 194 226 242 254 260 263 265 264 260 257 257 254 245 236 235 239 235 244 257 270 277 288 300
293 296 293 300 293 299 302 307 313 314 308 312 306 307 317 319 317 320 315 307 215 253 255 269 274 270 270 271 260 259 253 238 252 238 225 230 234 242 250 254 258 270 276
296 291 292 294 296 293 292 296 305 306 301 294 299 302 301 305 302 300 296 294 282 271 269 267 271 279 276 261 253 262 259 260 259 229 217 230 233 238 241 245 253 258 259
306 298 294 287 287 284 286 291 292 295 296 294 293 292 295 292 295 293 292 290 280 271 270 274 269 271 268 261 257 259 261 258 248 221 217 226 235 240 241 243 251 260 264
311 307 305 300 295 293 291 292 288 286 284 286 289 288 289 288 290 288 287 282 281 280 277 281 278 269 266 270 268 260 250 258 222 210 213 227 236 242 244 245 250 259 266
307 302 298 297 295 293 292 286 284 287 284 283 283 281 281 280 282 282 282 284 282 280 274 272 277 272 270 268 263 257 243 232 226 216 218 226 241 245 248 249 253 254 257
308 301 299 297 296 292 289 287 284 281 280 283 275 279 276 274 273 274 275 275 275 275 274 276 276 275 275 271 255 262 235 224 231 231 230 231 236 247 251 251 252 251 251
313 306 297 292 292 287 286 286 283 283 282 280 279 279 277 275 274 272 272 272 272 271 272 271 271 275 276 274 255 238 226 233 241 237 236 237 245 250 252 255 255 257 261
309 303 298 295 296 290 285 282 280 280 280 281 281 279 278 276 275 275 276 275 273 271 270 272 274 270 273 274 269 255 248 242 241 242 241 247 249 246 251 258 259 261 265
305 302 298 296 297 294 290 287 285 283 279 276 274 273 273 273 274 274 273 274 274 274 272 270 267 273 271 269 268 264 260 255 253 253 250 255 254 261 251 257 270 261 262
302 299 295 293 293 292 291 289 288 287 284 281 279 276 273 270 270 270 269 271 272 273 272 269 267 264 267 269 266 267 266 260 256 256 257 256 254 250 251 256 259 265 262
298 293 288 288 289 288 287 287 288 288 287 285 282 278 277 276 274 272 272 271 272 274 273 272 269 267 263 262 265 264 262 264 264 262 260 259 258 256 257 258 264 265 266
295 291 288 287 287 286 285 285 284 282 280 280 281 280 278 277 273 272 273 273 272 272 272 272 271 268 265 262 261 262 261 260 259 259 262 262 260 259 258 260 260 262 262
294 292 290 291 290 289 288 286 284 282 281 280 279 277 277 275 274 273 273 274 274 273 271 270 269 266 264 261 259 258 258 257 257 258 256 257 259 259 258 257 259 260 260
287 288 288 289 289 289 287 287 286 284 281 280 279 277 276 274 272 272 273 274 275 275 273 270 266 263 261 260 259 256 256 254 253 255 257 253 256 255 253 253 256 258 260
286 287 288 290 290 290 289 288 286 284 282 280 278 276 275 274 273 273 273 274 275 273 269 265 260 259 260 260 259 256 253 253 251 251 253 255 252 253 254 255 255 259 263
286 289 290 291 291 291 291 291 289 287 285 282 279 276 274 273 272 272 272 272 270 266 262 258 258 258 258 257 257 257 257 257 256 251 250 252 254 256 256 259 263 264 264
289 291 291 292 293 294 295 294 294 293 290 286 284 281 276 271 268 267 266 266 265 263 256 255 257 257 256 256 256 256 254 255 255 254 249 249 252 253 257 258 260 263 265
291 291 293 295 296 298 299 298 295 294 290 287 284 280 275 275 267 261 259 259 259 257 253 252 258 261 257 256 256 256 254 253 254 257 256 246 246 250 253 256 259 260 263
292 292 295 298 301 302 300 302 302 303 301 297 292 285 278 267 262 259 254 251 249 249 249 251 258 263 260 258 257 257 255 250 248 249 256 250 244 246 248 250 255 261 260
291 296 299 302 301 301 301 304 310 308 304 297 291 287 278 269 260 252 248 243 245 244 246 251 258 257 259 261 257 253 253 247 243 246 252 248 240 240 245 250 255 256 251
294 298 302 300 302 298 302 310 315 320 313 308 301 292 280 262 260 253 244 240 238 239 242 248 250 251 258 262 263 260 253 243 244 246 245 239 236 240 245 247 247 246 240
297 298 300 304 301 303 306 307 318 331 330 317 316 304 286 262 256 250 245 238 237 238 239 244 245 250 260 265 265 258 250 244 244 240 237 231 230 236 240 241 243 245 236
Height
5912 5923 5926 5924 5928 5928 5924 5923 5922 5917 5915 5914 5913 5911 5908 5903 5896 5892 5890 5892 5895 5900 5902 5902 5901 5902 5900 5902 5902 5903 5904 5904 5903 5903 5903 5901 5901 5901 5899 5896 5893 5891 5890
5920 5920 5920 5924 5923 5921 5920 5919 5918 5913 5910 5910 5909 5906 5903 5897 5889 5881 5882 5884 5884 5892 5895 5896 5896 5896 5895 5895 5896 5897 5898 5899 5899 5899 5900 5899 5898 5898 5897 5895 5893 5890 5889
5920 5920 5922 5922 5917 5916 5915 5914 5913 5908 5906 5905 5902 5901 5898 5892 5886 5881 5881 5884 5884 5887 5891 5890 5889 5889 5889 5889 5889 5888 5890 5892 5893 5894 5897 5895 5895 5894 5893 5892 5891 5889 5888
5926 5925 5922 5919 5914 5912 5910 5908 5907 5904 5901 5901 5899 5896 5894 5891 5887 5884 5881 5880 5882 5884 5884 5885 5882 5883 5882 5882 5883 5883 5884 5885 5886 5885 5890 5892 5891 5891 5890 5889 5889 5887 5887
5918 5918 5916 5913 5910 5908 5906 5904 5902 5901 5899 5897 5896 5893 5890 5887 5885 5882 5880 5880 5877 5879 5879 5878 5876 5875 5876 5876 5878 5875 5878 5875 5879 5881 5884 5886 5887 5887 5887 5886 5885 5884 5884
5914 5910 5908 5906 5903 5902 5901 5898 5897 5895 5894 5894 5892 5889 5886 5884 5881 5879 5877 5875 5873 5874 5871 5871 5870 5869 5870 5870 5871 5870 5871 5873 5875 5877 5880 5882 5883 5884 5883 5883 5883 5881 5880
5909 5907 5906 5902 5898 5895 5893 5891 5891 5890 5889 5887 5885 5884 5882 5879 5877 5874 5872 5870 5870 5868 5865 5865 5865 5864 5865 5864 5864 5864 5865 5866 5868 5871 5874 5876 5879 5880 5881 5880 5880 5878 5877
5900 5896 5893 5890 5888 5886 5885 5883 5882 5881 5880 5879 5878 5877 5875 5872 5871 5868 5867 5866 5863 5860 5859 5858 5858 5858 5859 5859 5857 5856 5857 5857 5861 5865 5868 5870 5873 5875 5875 5875 5875 5875 5874
5891 5889 5886 5883 5881 5878 5876 5874 5874 5873 5871 5871 5871 5870 5869 5867 5865 5863 5861 5859 5857 5855 5855 5853 5852 5852 5852 5851 5848 5847 5849 5851 5854 5858 5861 5864 5866 5868 5869 5870 5869 5869 5869
5883 5879 5876 5874 5872 5869 5868 5867 5864 5864 5863 5863 5862 5862 5861 5861 5858 5856 5854 5853 5852 5850 5848 5846 5845 5844 5844 5843 5839 5839 5842 5846 5848 5852 5855 5858 5858 5860 5861 5862 5861 5861 5861
5876 5872 5870 5867 5864 5862 5859 5857 5856 5855 5854 5853 5852 5851 5851 5850 5848 5847 5846 5845 5843 5842 5842 5839 5838 5838 5837 5837 5834 5833 5834 5835 5840 5846 5848 5851 5852 5852 5851 5852 5852 5854 5857
5866 5863 5860 5856 5854 5852 5851 5849 5847 5845 5844 5842 5841 5840 5840 5839 5838 5837 5835 5834 5834 5834 5834 5832 5830 5830 5830 5829 5830 5830 5830 5832 5835 5839 5841 5843 5843 5842 5840 5843 5844 5846 5848
5856 5851 5848 5845 5843 5840 5838 5837 5835 5833 5832 5832 5831 5830 5829 5827 5826 5826 5824 5822 5820 5820 5823 5823 5821 5819 5820 5821 5822 5823 5825 5826 5829 5831 5833 5833 5833 5833 5834 5836 5834 5834 5833
5846 5841 5837 5833 5830 5827 5825 5822 5821 5820 5818 5817 5816 5816 5816 5816 5815 5813 5811 5809 5808 5808 5809 5810 5810 5810 5809 5809 5811 5811 5813 5815 5818 5820 5822 5824 5826 5825 5826 5827 5827 5826 5827
5835 5831 5826 5822 5819 5817 5813 5810 5806 5804 5801 5800 5800 5800 5800 5801 5801 5799 5798 5797 5795 5795 5795 5796 5797 5797 5799 5798 5798 5799 5800 5801 5804 5806 5809 5812 5814 5814 5816 5816 5815 5816 5817
5821 5817 5813 5810 5806 5803 5800 5798 5794 5792 5789 5786 5784 5783 5784 5783 5784 5784 5783 5782 5782 5780 5780 5781 5782 5783 5783 5784 5785 5785 5786 5788 5791 5792 5795 5797 5800 5802 5804 5805 5806 5806 5808
5804 5800 5797 5794 5791 5787 5784 5781 5780 5778 5774 5772 5770 5767 5765 5767 5766 5766 5765 5764 5763 5764 5765 5764 5764 5765 5766 5767 5768 5769 5771 5773 5775 5778 5782 5784 5786 5789 5791 5793 5794 5795 5797
5789 5786 5782 5778 5775 5772 5769 5765 5762 5759 5758 5756 5751 5749 5748 5746 5746 5746 5745 5745 5745 5744 5744 5744 5744 5745 5746 5748 5749 5751 5753 5755 5758 5762 5765 5771 5773 5776 5778 5780 5782 5784 5786
5774 5770 5766 5763 5759 5755 5751 5747 5743 5739 5736 5734 5733 5731 5726 5723 5723 5724 5724 5724 5724 5724 5724 5724 5725 5726 5728 5730 5732 5733 5734 5737 5741 5744 5749 5753 5759 5761 5765 5767 5770 5773 5774
5759 5755 5751 5747 5742 5737 5732 5727 5722 5718 5714 5710 5707 5706 5703 5699 5701 5701 5701 5702 5703 5704 5705 5707 5709 5711 5713 5715 5717 5720 5721 5722 5724 5728 5733 5738 5742 5746 5750 5753 5755 5759 5762
5744 5740 5735 5731 5726 5719 5713 5707 5700 5694 5688 5683 5679 5676 5673 5671 5675 5677 5679 5680 5684 5686 5688 5690 5693 5695 5697 5699 5702 5704 5707 5709 5711 5712 5716 5722 5726 5731 5735 5739 5742 5746 5747
5728 5725 5721 5715 5709 5703 5695 5687 5678 5672 5665 5657 5652 5649 5647 5643 5645 5651 5654 5659 5664 5666 5670 5674 5677 5679 5680 5682 5684 5687 5690 5695 5699 5701 5702 5706 5712 5716 5721 5726 5729 5733 5735
5714 5710 5705 5699 5693 5686 5678 5669 5660 5652 5643 5636 5630 5626 5623 5621 5623 5628 5633 5638 5642 5648 5653 5659 5663 5665 5665 5667 5668 5671 5674 5678 5682 5686 5690 5693 5698 5704 5708 5711 5715 5718 5721
5700 5696 5690 5685 5678 5671 5663 5656 5647 5637 5626 5617 5611 5606 5603 5604 5605 5610 5616 5621 5625 5633 5640 5646 5650 5652 5652 5653 5655 5658 5661 5663 5666 5672 5677 5680 5684 5691 5695 5699 5702 5705 5708
5687 5682 5676 5670 5664 5658 5652 5645 5637 5626 5612 5602 5596 5591 5589 5590 5594 5597 5603 5609 5615 5621 5629 5634 5638 5641 5642 5644 5645 5647 5649 5651 5655 5659 5664 5668 5672 5677 5683 5687 5690 5692 5695
5674 5669 5664 5659 5653 5648 5643 5638 5630 5619 5606 5597 5591 5586 5582 5583 5586 5589 5592 5597 5605 5612 5619 5624 5628 5632 5633 5634 5635 5636 5638 5640 5644 5648 5653 5657 5662 5667 5672 5676 5679 5681 5684